#timestamp,LO_Frequency,Hit,StdDev 
1503248415.7,286047001.2,N,0.8
1503248435.5,286047000.3,N,0.7
1503248455.3,286047000.6,N,0.7
1503248475.2,286047001.0,N,0.7
1503248495.0,286047000.6,N,0.6
1503248495.9,286047000.6,N,0.6
1503248515.8,286047000.3,N,0.6
1503248535.6,286047002.8,Y,0.0
1503248555.4,286047000.6,P,0.0
1503248575.3,286046999.9,P,0.3
1503248595.1,286047001.0,N,0.4
1503248615.8,286047000.4,N,0.4
1503248635.7,286047000.8,N,0.3
1503248655.5,286047000.3,N,0.3
1503248675.4,286047001.1,Y,0.0
1503248695.2,286046998.6,P,1.0
1503248715.0,286046998.3,N,1.0
1503248715.9,286046998.3,N,0.9
1503248735.8,286047000.8,N,1.1
1503248755.6,286046999.9,N,1.0
1503248775.5,286047000.3,N,1.0
1503248795.3,286046998.5,N,1.0
1503248815.1,286047000.6,N,1.0
1503248835.9,286047001.0,N,1.1
1503248855.7,286047000.9,N,1.1
1503248875.5,286047000.4,N,1.0
1503248895.4,286046999.8,N,1.0
1503248915.2,286046999.7,N,1.0
1503248935.1,286047002.7,N,1.2
1503248936.0,286047002.7,N,1.3
1503248955.8,286047002.0,N,1.3
1503248975.6,286047001.9,N,1.4
1503248995.5,286047001.7,N,1.4
1503249015.3,286047001.8,N,1.3
1503249035.2,286047003.9,N,1.5
1503249055.9,286047003.5,N,1.6
1503249075.7,286047004.4,N,1.7
1503249095.6,286047001.5,N,1.7
1503249115.4,286047002.0,N,1.7
1503249135.3,286047001.8,N,1.6
1503249155.1,286047001.4,N,1.6
1503249156.0,286047001.4,N,1.6
1503249175.8,286047004.0,N,1.6
1503249195.7,286047004.1,N,1.7
1503249215.5,286047001.9,N,1.7
1503249235.3,286047004.3,N,1.7
1503249255.2,286047001.8,N,1.6
1503249275.0,286047001.8,N,1.5
1503249275.9,286682707.3,Y,0.0
1503249295.8,286046999.9,P,0.9
1503249315.6,286046999.8,N,0.9
1503249335.4,286047002.1,N,1.0
1503249355.3,286047002.2,N,1.1
1503249375.1,286047001.8,N,1.0
1503249395.9,286047001.4,N,0.9
1503249415.7,286047001.4,N,0.9
1503249435.5,286047002.2,N,0.9
1503249455.4,286047001.8,N,0.8
1503249475.2,286047002.5,N,0.9
1503249495.1,286047004.4,Y,0.0
1503249496.0,286047004.4,P,1.4
1503249515.8,286047002.5,N,1.2
1503249535.6,286046999.9,N,1.6
1503249555.5,286047002.8,N,1.5
1503249575.3,286047002.3,N,1.4
1503249595.2,286047001.9,N,1.3
1503249615.9,286047001.8,N,1.2
1503249635.7,286047002.8,N,1.1
1503249655.6,286047002.5,N,1.1
1503249675.4,286047001.5,N,1.1
1503249695.2,286047002.1,N,1.0
1503249715.1,286047001.9,N,1.0
1503249716.0,286047001.9,N,0.9
1503249735.8,286047002.2,N,0.9
1503249755.7,286047004.4,Y,0.0
1503249775.5,286047000.4,P,0.9
1503249795.4,286047000.6,N,0.8
1503249815.2,286047000.7,N,0.7
1503249835.0,286046998.2,N,1.3
1503249835.9,286046998.2,N,1.4
1503249855.8,286047001.1,N,1.4
1503249875.6,286047000.3,N,1.3
1503249895.4,286047000.3,N,1.2
1503249915.3,286047000.5,N,1.1
1503249935.1,286047000.4,N,1.1
1503249955.9,286047000.3,N,1.0
1503249975.7,286046999.8,N,1.0
1503249995.5,286046999.8,N,1.0
1503250015.4,286047000.3,N,0.9
1503250035.2,286047000.2,N,0.9
1503250055.1,286047000.0,N,0.9
1503250056.0,286047000.0,N,0.9
1503250075.8,286046999.8,N,0.8
1503250095.6,286046999.7,N,0.8
1503250115.5,286047002.2,N,0.9
1503250135.3,286046999.7,N,0.9
1503250155.2,286047001.6,N,0.9
1503250175.9,286047002.2,N,1.0
1503250195.7,286047001.8,N,1.0
1503250215.6,286047001.5,N,1.0
1503250235.4,286047002.0,N,1.0
1503250255.2,286047001.9,N,1.1
1503250275.1,286047002.0,N,1.1
1503250276.0,286047002.0,N,1.1
1503250295.8,286047001.5,N,1.1
1503250315.7,286047001.9,N,1.1
1503250335.5,286047001.4,N,1.1
1503250355.3,286047002.1,N,1.1
1503250375.2,286047002.2,N,1.0
1503250395.0,286047002.1,N,0.9
1503250395.9,286047002.1,N,0.9
1503250415.8,286047001.8,N,0.9
1503250435.6,286047002.4,N,1.0
1503250455.4,286047001.5,N,1.0
1503250475.3,286047003.9,Y,0.0
1503250495.1,286047002.1,P,0.4
1503250515.8,286047002.1,P,0.4
1503250535.7,286047001.3,P,0.4
1503250555.5,286047003.9,Y,0.0
1503250575.4,286047002.1,P,0.2
1503250595.2,286047000.0,N,0.9
1503250615.0,286047000.4,N,0.9
1503250615.9,286047000.4,N,0.8
1503250635.8,286046999.8,N,0.9
1503250655.6,286046999.8,N,0.9
1503250675.5,286047002.8,Y,0.0
1503250695.3,286047000.1,P,0.2
1503250715.1,286047000.1,N,0.2
1503250735.9,286046999.9,N,0.3
1503250755.7,286047000.2,N,0.2
1503250775.6,286047000.5,N,0.2
1503250795.4,286047001.0,Y,0.0
1503250815.2,286047001.0,P,0.4
1503250835.1,286047000.6,N,0.3
1503250836.0,286047000.6,N,0.3
1503250855.8,286047001.2,Y,0.0
1503250875.7,286046998.2,P,1.2
1503250895.5,286046998.2,N,1.1
1503250915.3,286046998.1,N,1.1
1503250935.2,286046998.2,N,1.0
1503250955.0,286047000.8,N,1.2
1503250955.9,286047000.8,N,1.3
1503250975.7,286046998.6,N,1.2
1503250995.6,286046998.3,N,1.2
1503251015.4,286046998.2,N,1.1
1503251035.3,286046998.7,N,1.1
1503251055.1,286046999.0,N,1.0
1503251056.0,286046999.0,N,1.0
1503251075.8,286046999.1,N,1.0
1503251095.7,286046998.6,N,0.9
1503251115.5,286046998.9,N,0.9
1503251135.4,286046998.7,N,0.9
1503251155.2,286046998.1,N,0.9
1503251175.0,286047000.8,N,1.0
1503251175.9,286047000.8,N,1.0
1503251195.8,286047000.3,N,1.0
1503251215.6,286047000.8,N,1.1
1503251235.4,286047001.2,N,1.1
1503251255.3,286047000.3,N,1.1
1503251275.1,286047000.8,N,1.1
1503251295.9,286047001.1,N,1.1
1503251315.7,286047000.6,N,1.1
1503251335.5,286047000.4,N,1.1
1503251355.4,286047000.0,N,1.1
1503251375.2,286047000.8,N,1.1
1503251395.1,286047001.1,N,1.1
1503251396.0,286047001.1,N,1.1
1503251415.8,286047000.5,N,1.1
1503251435.6,286047000.9,N,1.1
1503251455.5,286047001.0,N,1.1
1503251475.3,286047000.9,N,1.1
1503251495.2,286047000.9,N,1.1
1503251515.9,286047000.4,N,1.0
1503251535.7,286047000.8,N,1.0
1503251555.6,286047000.7,N,0.9
1503251575.4,286047000.4,N,0.9
1503251595.2,286047002.2,N,0.9
1503251615.1,286047002.8,Y,0.0
1503251616.0,286047002.8,P,1.2
1503251635.8,286047000.0,N,1.2
1503251655.7,286047000.3,N,1.1
1503251675.5,286046999.9,N,1.1
1503251695.4,286047000.1,N,1.0
1503251715.2,286046999.8,N,1.0
1503251735.0,286046999.7,N,0.9
1503251735.9,286046999.7,N,0.9
1503251755.8,286046999.7,N,0.9
1503251775.6,286047000.0,N,0.8
1503251795.4,286047000.1,N,0.8
1503251815.3,286047000.4,N,0.8
1503251835.1,286047002.7,Y,0.0
1503251855.9,286047001.9,P,0.8
1503251875.7,286047002.4,N,0.9
1503251895.5,286047002.5,N,0.9
1503251915.4,286047002.2,N,0.8
1503251935.2,286047002.7,Y,0.0
1503251955.1,286047001.0,P,0.4
1503251956.0,286047001.0,N,0.4
1503251975.8,286046998.1,P,1.4
1503251995.6,286046998.6,N,1.5
